Date String (YYYY-MM-DD hh:mm:ss) UTC,Instrument flags,Ambient pressure (hPa),Sample flow (lpm),Bypass flow (lpm),Sample temperature (°C),Ambient temperature (°C),ASC tube jacket temperature (°C),LED temperature (°C),Box temperature (°C),Sample RH (%),Span deviation,Mass concentration (μg/m³),Mass concentration (μg/m³),Mass concentration (μg/m³)
DateTimeUTC,F1_M11,P_M11,Q1_M11,Q2_M11,T1_M11,T2_M11,T3_M11,T4_M11,T5_M11,U1_M11,ZSPAN_M11,X0_M11,X2_M11,X1_M11
2023-05-25 22:00:00,,0828.3,5.00,0.00,29.2,27.4,00.0,37.5,30.9,29.5,0002.6,0015.99,0008.66,0007.86
2023-05-25 22:01:00,,0828.4,4.99,0.00,29.3,27.6,00.0,37.5,30.9,29.1,0002.6,0016.37,0008.60,0007.79
2023-05-25 22:02:00,,0828.4,5.00,0.00,29.3,27.7,00.0,37.5,31.0,28.6,0002.6,0016.14,0008.53,0007.73
2023-05-25 22:03:00,,0828.4,5.00,0.00,29.3,27.9,00.0,37.6,31.0,28.5,0002.5,0015.73,0008.42,0007.64
2023-05-25 22:04:00,,0828.4,5.00,0.00,29.3,28.0,00.0,37.6,31.1,28.5,0002.6,0015.27,0008.30,0007.54
2023-05-25 22:05:00,,0828.4,5.00,0.00,29.4,28.1,00.0,37.6,31.1,28.7,0002.6,0015.40,0008.23,0007.45
2023-05-25 22:06:00,,0828.5,5.00,0.00,29.4,28.1,00.0,37.6,31.1,28.8,0002.6,0016.00,0008.15,0007.39
2023-05-25 22:07:00,,0828.5,5.00,0.00,29.4,28.2,00.0,37.7,31.2,28.5,0002.5,0015.86,0008.13,0007.35
2023-05-25 22:08:00,,0828.5,5.00,0.00,29.5,28.2,00.0,37.7,31.2,28.5,0002.5,0015.79,0008.09,0007.31
2023-05-25 22:09:00,,0828.5,4.98,0.00,29.5,27.0,00.0,37.6,31.1,28.8,0002.6,0017.16,0007.98,0007.24
2023-05-25 22:10:00,,0828.5,5.00,0.00,29.4,25.9,00.0,37.5,30.9,29.1,0002.9,0017.13,0007.95,0007.22
2023-05-25 22:11:00,,0828.4,5.01,0.00,29.4,25.8,00.0,37.5,30.8,29.3,0003.0,0016.55,0007.90,0007.17
2023-05-25 22:12:00,,0828.4,5.01,0.00,29.3,26.0,00.0,37.5,30.8,28.7,0003.0,0015.90,0007.82,0007.10
2023-05-25 22:13:00,,0828.4,4.99,0.00,29.3,26.3,00.0,37.5,30.8,28.5,0003.1,0015.95,0007.81,0007.07
2023-05-25 22:14:00,,0828.4,5.00,0.00,29.3,26.7,00.0,37.5,30.8,28.6,0003.2,0016.64,0007.85,0007.10
2023-05-25 22:15:00,,0828.4,5.01,0.00,29.3,27.0,00.0,37.6,30.9,28.5,0003.4,0016.62,0007.86,0007.11
2023-05-25 22:16:00,,0828.5,5.01,0.00,29.3,27.2,00.0,37.6,30.9,28.6,0003.4,0016.50,0007.82,0007.09
2023-05-25 22:17:00,,0828.5,5.00,0.00,29.3,27.5,00.0,37.6,31.0,28.5,0003.3,0016.09,0007.81,0007.08
2023-05-25 22:18:00,,0828.5,4.99,0.00,29.3,27.7,00.0,37.6,31.0,28.4,0003.4,0016.08,0007.80,0007.07
2023-05-25 22:19:00,,0828.5,4.99,0.00,29.3,27.8,00.0,37.6,31.1,28.3,0003.5,0016.39,0007.76,0007.05
2023-05-25 22:20:00,,0828.5,5.01,0.00,29.4,28.0,00.0,37.6,31.1,28.0,0003.3,0015.34,0007.77,0007.02
2023-05-25 22:21:00,,0828.5,5.01,0.00,29.4,28.1,00.0,37.7,31.1,27.9,0003.0,0015.39,0007.77,0006.99
2023-05-25 22:22:00,,0828.5,5.00,0.00,29.4,28.2,00.0,37.7,31.2,28.3,0002.9,0016.45,0007.79,0006.96
2023-05-25 22:23:00,,0828.5,5.00,0.00,29.5,28.3,00.0,37.7,31.2,28.2,0002.9,0016.80,0007.83,0006.97
2023-05-25 22:24:00,,0828.5,4.99,0.00,29.5,28.3,00.0,37.7,31.3,28.1,0002.9,0016.67,0007.80,0006.95
2023-05-25 22:25:00,,0828.4,4.99,0.00,29.5,27.9,00.0,37.7,31.3,28.1,0002.8,0016.10,0007.80,0006.93
2023-05-25 22:26:00,,0828.4,5.00,0.00,29.5,26.2,00.0,37.7,31.0,28.3,0002.6,0016.00,0007.79,0006.93
2023-05-25 22:27:00,,0828.4,5.00,0.00,29.4,25.1,00.0,37.6,30.7,28.4,0002.7,0016.05,0007.86,0006.97
2023-05-25 22:28:00,,0828.4,5.01,0.00,29.3,25.0,00.0,37.5,30.6,28.1,0002.8,0015.79,0007.88,0006.99
2023-05-25 22:29:00,,0828.3,5.01,0.00,29.2,25.3,00.0,37.5,30.6,28.5,0002.7,0015.71,0007.90,0007.00
2023-05-25 22:30:00,,0828.3,5.00,0.00,29.2,25.7,00.0,37.5,30.6,28.7,0002.6,0015.42,0007.94,0007.02
2023-05-25 22:31:00,,0828.3,5.00,0.00,29.2,26.1,00.0,37.5,30.7,28.8,0002.5,0015.27,0007.98,0007.10
2023-05-25 22:32:00,,0828.3,5.00,0.00,29.2,26.5,00.0,37.5,30.7,29.0,0002.7,0015.61,0008.00,0007.15
2023-05-25 22:33:00,,0828.3,5.00,0.00,29.2,26.8,00.0,37.5,30.8,29.2,0002.8,0014.90,0008.03,0007.19
2023-05-25 22:34:00,,0828.3,5.00,0.00,29.2,27.1,00.0,37.5,30.8,28.8,0002.7,0014.51,0008.07,0007.23
2023-05-25 22:35:00,,0828.3,5.00,0.00,29.2,27.3,00.0,37.5,30.9,29.2,0002.5,0015.05,0008.06,0007.22
2023-05-25 22:36:00,,0828.3,4.99,0.00,29.2,27.5,00.0,37.5,30.9,28.1,0002.4,0014.91,0007.97,0007.17
2023-05-25 22:37:00,,0828.4,4.99,0.00,29.2,27.7,00.0,37.6,31.0,27.6,0002.5,0015.10,0007.93,0007.11
2023-05-25 22:38:00,,0828.3,5.01,0.00,29.3,27.8,00.0,37.6,31.0,27.7,0002.2,0015.50,0007.83,0007.04
2023-05-25 22:39:00,,0828.4,5.00,0.00,29.3,27.9,00.0,37.6,31.0,27.6,0002.0,0015.42,0007.78,0006.99
2023-05-25 22:40:00,,0828.4,5.00,0.00,29.3,28.0,00.0,37.6,31.1,27.6,0002.1,0016.29,0007.75,0006.97
2023-05-25 22:41:00,,0828.4,5.00,0.00,29.4,28.1,00.0,37.6,31.1,27.5,0002.2,0016.30,0007.69,0006.95
2023-05-25 22:42:00,,0828.4,5.00,0.00,29.4,28.2,00.0,37.6,31.2,27.4,0002.4,0015.90,0007.60,0006.89
2023-05-25 22:43:00,,0828.5,4.99,0.00,29.4,28.3,00.0,37.7,31.2,27.8,0002.4,0016.16,0007.53,0006.82
2023-05-25 22:44:00,,0828.5,5.00,0.00,29.5,28.4,00.0,37.7,31.2,27.4,0002.3,0015.80,0007.46,0006.78
2023-05-25 22:45:00,,0828.5,5.00,0.00,29.5,27.5,00.0,37.7,31.2,27.4,0002.3,0015.80,0007.39,0006.72
2023-05-25 22:46:00,,0828.5,5.00,0.00,29.5,26.1,00.0,37.6,31.0,27.7,0002.4,0015.39,0007.32,0006.68
2023-05-25 22:47:00,,0828.4,5.01,0.00,29.4,25.9,00.0,37.5,30.9,27.2,0002.4,0015.23,0007.32,0006.68
2023-05-25 22:48:00,,0828.4,5.01,0.00,29.3,26.0,00.0,37.6,30.8,27.7,0002.4,0015.12,0007.32,0006.68
2023-05-25 22:49:00,,0828.4,5.01,0.00,29.3,26.3,00.0,37.6,30.8,27.7,0002.8,0014.47,0007.40,0006.72
2023-05-25 22:50:00,,0828.4,4.99,0.00,29.3,26.6,00.0,37.6,30.9,27.5,0002.9,0014.57,0007.40,0006.71
2023-05-25 22:51:00,,0828.4,5.00,0.00,29.3,26.9,00.0,37.6,30.9,28.1,0003.0,0013.67,0007.41,0006.68
2023-05-25 22:52:00,,0828.4,5.00,0.00,29.3,27.2,00.0,37.6,31.0,28.1,0003.0,0013.73,0007.39,0006.64
2023-05-25 22:53:00,,0828.4,5.00,0.00,29.3,27.4,00.0,37.6,31.0,28.0,0003.0,0013.93,0007.37,0006.61
2023-05-25 22:54:00,,0828.5,5.00,0.00,29.3,27.6,00.0,37.6,31.0,28.0,0002.9,0013.25,0007.38,0006.60
2023-05-25 22:55:00,,0828.5,5.00,0.00,29.4,27.8,00.0,37.6,31.1,28.0,0002.8,0013.47,0007.37,0006.58
2023-05-25 22:56:00,,0828.5,4.99,0.00,29.4,27.9,00.0,37.7,31.1,27.9,0002.7,0013.46,0007.37,0006.57
2023-05-25 22:57:00,,0828.5,5.00,0.00,29.4,28.1,00.0,37.7,31.2,28.0,0002.7,0013.90,0007.36,0006.54
2023-05-25 22:58:00,,0828.5,5.00,0.00,29.5,28.2,00.0,37.7,31.2,28.8,0002.8,0014.53,0007.31,0006.52
2023-05-25 22:59:00,,0828.5,5.00,0.00,29.5,28.3,00.0,37.7,31.2,28.8,0002.8,0014.80,0007.31,0006.54
